Weather in Lipovka

Russia / Lipetsk Oblast     52°58′08″N   38°13′27″E
temp.,
°C
wind,
m/s
gust,
m/s
humid.,
%
clouds,
%
prec.,
mm/h
press.,
hPa
HPBL,
m
11 april, sun
sun1100:00+5w11530 0.0 102710
03:00+3nw22610 0.0 102810
06:00+2nnw22662 0.0 102918
09:00+6n235494 0.0 1030207
12:00+10ne34413 0.0 1030972
15:00+12ne553642 0.0 10291119
18:00+11ne47458 0.0 1029505
21:00+7ne41062100 0.0 1030206
12 april, mon
mon1200:00+5ne41268100 0.0 1030272
03:00+5ne51264100 0.0 1030339
06:00+4ne51177100 0.0 1029331
09:00+7ene6981100 0.0 1029378
12:00+12e5772100 0.0 1027505
15:00+15e6862100 0.0 1026723
18:00+15e4866100 0.0 1025235
21:00+12e4117999 0.0 1025181
13 april, tue
tue1300:00+11se5127360 0.0 1025204
03:00+9se497994 0.0 1025140
06:00+8se497894 0.0 1025136
09:00+12se5105983 0.0 1025334
12:00+17se694344 0.0 1024918
15:00+19sse68398 0.0 10231501
18:00+18se5944100 0.0 1022291
21:00+13se412565 0.0 1023230
14 april, wed
wed1400:00+12se513615 0.0 1022257
03:00+10sse487079 0.0 1022133
06:00+9se3773100 0.0 1022111
09:00+13se5955100 0.0 1021293
12:00+17se693597 0.0 10201100
15:00+19se682845 0.0 10191902
18:00+17se4736100 0.0 1018285
21:00+14se3849100 0.0 1018129
15 april, thu
thu1500:00+12se3451100 0.0 101845
03:00+10ese335691 0.0 101733
06:00+9ese3362100 0.0 101736
09:00+13e3557100 0.0 1016226
12:00+17e5644100 0.0 1014794
15:00+19e6734100 0.0 10122262
18:00+13sse61067100 0.8 1012608
21:00+11e3578100 1.8 1012118